Date String (YYYY-MM-DD hh:mm:ss) UTC,Instrument flags,absolute air pressure of the measurement (hPa),sample flow rate (lpm),inlet stack bypass flow (lpm),air temperature of the measurement (°C),ambient temperature measured by the external sensor (°C),aerosol sample conditioner tube jacket temperature (°C),OPC LED temperature (°C),internal box temperature (°C),relative humidity of the measurement (%),span deviation,mass concentration of particles derived from Lorenz-Mie calculation of OPC scattering (μg/m³),mass concentration of particles derived from Lorenz-Mie calculation of OPC scattering (μg/m³),mass concentration of particles derived from Lorenz-Mie calculation of OPC scattering (μg/m³)
DateTimeUTC,F1_M11,P_M11,Q1_M11,Q2_M11,T1_M11,T2_M11,T3_M11,T4_M11,T5_M11,U1_M11,ZSPAN_M11,X0_M11,X2_M11,X1_M11
2024-06-16 06:00:00,SystemResetWarning,0824.8,5.00,000.00,029.6,028.7,000.0,037.9,031.3,017.3,0000.0,0014.88,0006.27,0005.30
2024-06-16 06:01:00,SystemResetWarning,0824.8,5.00,000.00,029.7,028.8,000.0,038.0,031.4,017.1,0000.0,0014.54,0006.18,0005.30
2024-06-16 06:02:00,SystemResetWarning,0824.8,5.00,000.00,029.7,029.0,000.0,038.0,031.5,017.1,0000.0,0014.50,0006.20,0005.33
2024-06-16 06:03:00,SystemResetWarning,0824.8,5.00,000.00,029.8,029.1,000.0,038.0,031.5,017.2,0000.0,0014.25,0006.22,0005.35
2024-06-16 06:04:00,SystemResetWarning,0824.8,5.00,000.00,029.8,029.2,000.0,038.0,031.6,017.3,0000.0,0013.74,0006.24,0005.36
2024-06-16 06:05:00,SystemResetWarning,0824.8,5.00,000.00,029.9,029.3,000.0,038.0,031.7,017.2,0000.0,0012.19,0006.22,0005.37
2024-06-16 06:06:00,SystemResetWarning,0824.8,5.01,000.00,029.9,029.4,000.0,038.1,031.7,017.2,0000.0,0011.86,0006.18,0005.36
2024-06-16 06:07:00,SystemResetWarning,0824.8,5.00,000.00,030.0,029.4,000.0,038.1,031.8,017.1,0000.0,0011.73,0006.12,0005.35
2024-06-16 06:08:00,SystemResetWarning,0824.8,5.00,000.00,030.0,029.5,000.0,038.1,031.8,017.1,0000.0,0012.13,0006.14,0005.35
2024-06-16 06:09:00,SystemResetWarning,0824.7,4.99,000.00,030.1,029.6,000.0,038.2,031.9,017.0,0000.0,0012.57,0006.14,0005.34
2024-06-16 06:10:00,SystemResetWarning,0824.8,4.98,000.00,030.1,029.6,000.0,038.2,031.9,017.0,0000.0,0012.74,0006.18,0005.35
2024-06-16 06:11:00,SystemResetWarning,0824.7,5.00,000.00,030.2,029.7,000.0,038.2,031.9,016.9,0000.0,0012.54,0006.19,0005.35
2024-06-16 06:12:00,SystemResetWarning,0824.7,5.01,000.00,030.2,029.7,000.0,038.3,032.0,016.7,0000.0,0012.63,0006.25,0005.38
2024-06-16 06:13:00,SystemResetWarning,0824.7,5.01,000.00,030.2,029.7,000.0,038.3,032.0,016.7,0000.0,0012.56,0006.23,0005.38
2024-06-16 06:14:00,SystemResetWarning,0824.7,4.99,000.00,030.2,029.1,000.0,038.4,031.7,016.6,0000.0,0012.81,0006.22,0005.38
2024-06-16 06:15:00,SystemResetWarning,0824.6,5.01,000.00,029.8,026.7,000.0,038.4,030.6,017.0,0000.0,0012.59,0006.18,0005.38
2024-06-16 06:16:00,SystemResetWarning,0824.5,5.01,000.00,029.5,026.3,000.0,038.4,030.3,017.3,0000.0,0012.69,0006.21,0005.39
2024-06-16 06:17:00,SystemResetWarning,0824.5,4.99,000.00,029.4,026.7,000.0,038.3,030.4,017.4,0000.0,0012.57,0006.24,0005.41
2024-06-16 06:18:00,SystemResetWarning,0824.5,5.00,000.00,029.4,027.1,000.0,038.2,030.6,017.4,0000.0,0012.44,0006.29,0005.44
2024-06-16 06:19:00,SystemResetWarning,0824.5,5.01,000.00,029.4,027.5,000.0,038.1,030.8,017.5,0000.0,0013.15,0006.24,0005.45
2024-06-16 06:20:00,SystemResetWarning,0824.5,5.00,000.00,029.4,027.8,000.0,038.0,031.0,017.5,0000.0,0012.98,0006.25,0005.46
2024-06-16 06:21:00,SystemResetWarning,0824.5,4.99,000.00,029.5,028.1,000.0,038.0,031.1,017.6,0004.3,0013.73,0006.24,0005.47
2024-06-16 06:22:00,SystemResetWarning,0824.5,5.00,000.00,029.5,028.4,000.0,038.0,031.2,017.4,0001.1,0013.43,0006.23,0005.48
2024-06-16 06:23:00,SystemResetWarning,0824.5,5.01,000.00,029.6,028.6,000.0,038.0,031.3,017.3,0004.7,0013.42,0006.21,0005.47
2024-06-16 06:24:00,SystemResetWarning,0824.5,5.00,000.00,029.6,028.7,000.0,038.0,031.4,017.2,0001.3,0013.57,0006.23,0005.49
2024-06-16 06:25:00,SystemResetWarning,0824.5,4.99,000.00,029.7,028.9,000.0,038.0,031.4,017.1,0000.3,0013.59,0006.23,0005.50
2024-06-16 06:26:00,SystemResetWarning,0824.6,5.00,000.00,029.7,029.0,000.0,038.0,031.5,017.0,0003.9,0013.95,0006.28,0005.50
2024-06-16 06:27:00,SystemResetWarning,0824.6,4.99,000.00,029.8,029.1,000.0,038.0,031.6,017.0,0003.1,0013.95,0006.25,0005.49
2024-06-16 06:28:00,SystemResetWarning,0824.5,4.99,000.00,029.8,029.2,000.0,038.0,031.6,017.0,0002.5,0014.04,0006.25,0005.49
2024-06-16 06:29:00,SystemResetWarning,0824.6,4.99,000.00,029.9,029.3,000.0,038.0,031.7,017.0,0001.7,0015.07,0006.28,0005.48
2024-06-16 06:30:00,SystemResetWarning,0824.6,5.00,000.00,029.9,029.4,000.0,038.1,031.8,017.0,0001.4,0014.12,0006.27,0005.48
2024-06-16 06:31:00,SystemResetWarning,0824.5,5.00,000.00,030.0,029.4,000.0,038.1,031.8,016.7,0002.2,0013.63,0006.24,0005.47
2024-06-16 06:32:00,SystemResetWarning,0824.5,5.01,000.00,030.0,029.5,000.0,038.1,031.8,016.6,0002.7,0012.64,0006.20,0005.48
2024-06-16 06:33:00,SystemResetWarning,0824.4,5.00,000.00,030.1,029.5,000.0,038.2,031.9,016.5,0003.1,0012.81,0006.24,0005.50
2024-06-16 06:34:00,SystemResetWarning,0824.4,5.00,000.00,030.1,029.6,000.0,038.2,031.9,016.6,0003.3,0013.47,0006.30,0005.51
2024-06-16 06:35:00,SystemResetWarning,0824.4,5.01,000.00,030.2,029.6,000.0,038.2,032.0,016.3,0003.3,0014.02,0006.30,0005.50
2024-06-16 06:36:00,SystemResetWarning,0824.4,5.00,000.00,030.2,029.7,000.0,038.3,032.0,016.5,0003.5,0014.31,0006.28,0005.48
2024-06-16 06:37:00,SystemResetWarning,0824.4,5.00,000.00,030.2,029.7,000.0,038.3,032.0,016.1,0004.0,0013.80,0006.28,0005.49
2024-06-16 06:38:00,SystemResetWarning,0824.4,4.99,000.00,030.3,029.8,000.0,038.3,032.0,016.0,0004.0,0013.52,0006.30,0005.51
2024-06-16 06:39:00,SystemResetWarning,0824.4,4.99,000.00,030.3,029.8,000.0,038.4,032.1,016.0,0004.1,0013.28,0006.30,0005.51
2024-06-16 06:40:00,SystemResetWarning,0824.4,5.01,000.00,030.4,029.8,000.0,038.4,032.1,016.0,0004.4,0012.28,0006.25,0005.51
2024-06-16 06:41:00,SystemResetWarning,0824.5,5.00,000.00,030.4,029.9,000.0,038.4,032.1,015.9,0004.7,0012.44,0006.30,0005.54
2024-06-16 06:42:00,SystemResetWarning,0824.5,5.00,000.00,030.4,029.9,000.0,038.5,032.2,015.8,0004.4,0012.46,0006.34,0005.58
2024-06-16 06:43:00,SystemResetWarning,0824.4,5.00,000.00,030.4,029.7,000.0,038.5,032.1,016.2,0004.3,0012.95,0006.41,0005.61
2024-06-16 06:44:00,SystemResetWarning,0824.4,4.99,000.00,030.2,027.3,000.0,038.6,031.0,016.7,0003.7,0012.70,0006.40,0005.63
2024-06-16 06:45:00,SystemResetWarning,0824.3,5.02,000.00,029.7,026.1,000.0,038.6,030.3,016.9,0003.7,0013.05,0006.37,0005.64
2024-06-16 06:46:00,SystemResetWarning,0824.3,5.01,000.00,029.5,026.4,000.0,038.5,030.4,016.9,0003.7,0013.23,0006.37,0005.68
2024-06-16 06:47:00,SystemResetWarning,0824.3,5.00,000.00,029.5,026.8,000.0,038.3,030.6,016.8,0003.5,0012.88,0006.43,0005.72
2024-06-16 06:48:00,SystemResetWarning,0824.3,5.00,000.00,029.5,027.3,000.0,038.2,030.8,016.7,0003.8,0012.79,0006.45,0005.75
2024-06-16 06:49:00,SystemResetWarning,0824.3,5.00,000.00,029.5,027.6,000.0,038.2,031.0,016.7,0003.6,0013.13,0006.45,0005.76
2024-06-16 06:50:00,SystemResetWarning,0824.3,5.00,000.00,029.6,028.0,000.0,038.1,031.1,016.9,0003.8,0013.51,0006.45,0005.77
2024-06-16 06:51:00,SystemResetWarning,0824.3,5.00,000.00,029.6,028.2,000.0,038.1,031.2,016.7,0003.7,0014.49,0006.51,0005.79
2024-06-16 06:52:00,SystemResetWarning,0824.3,5.01,000.00,029.6,028.5,000.0,038.1,031.3,016.5,0000.4,0014.25,0006.52,0005.81
2024-06-16 06:53:00,SystemResetWarning,0824.3,5.00,000.00,029.7,028.7,000.0,038.0,031.4,016.6,0000.0,0014.34,0006.51,0005.80
2024-06-16 06:54:00,SystemResetWarning,0824.3,5.00,000.00,029.7,028.8,000.0,038.1,031.5,016.5,0000.0,0014.45,0006.49,0005.79
2024-06-16 06:55:00,SystemResetWarning,0824.4,5.00,000.00,029.8,028.9,000.0,038.1,031.5,016.4,0000.0,0014.90,0006.48,0005.78
2024-06-16 06:56:00,SystemResetWarning,0824.3,5.00,000.00,029.8,029.1,000.0,038.1,031.5,016.4,0000.5,0015.34,0006.50,0005.78
2024-06-16 06:57:00,SystemResetWarning,0824.4,5.00,000.00,029.8,029.2,000.0,038.1,031.6,016.6,0000.3,0014.16,0006.51,0005.77
2024-06-16 06:58:00,SystemResetWarning,0824.4,5.00,000.00,029.9,029.2,000.0,038.1,031.6,016.8,0000.0,0014.20,0006.48,0005.76
2024-06-16 06:59:00,SystemResetWarning,0824.3,5.00,000.00,029.9,029.3,000.0,038.1,031.7,016.5,0001.3,0014.96,0006.48,0005.76
